Regional Weather Roundup
Issued by NWS Mobile, AL

Home | Current Version | Previous Version | Text Only | Print | Product List | Glossary On
Versions: 1 2 3 4 5 6 7 8 9 10 11 12 13 14 15 16 17 18 19 20 21 22 23 24 25 26 27 28 29 30 31 32 33 34 35 36 37 38 39 40 41 42 43 44 45 46 47 48 49 50
000
ASUS44 KMOB 092112
RWRMOB
REGIONAL WEATHER ROUNDUP
NATIONAL WEATHER SERVICE MOBILE AL
300 PM CST FRI DEC 09 2016

NOTE: "FAIR" INDICATES FEW OR NO CLOUDS BELOW 12,000 FEET WITH NO
      SIGNIFICANT WEATHER AND/OR OBSTRUCTIONS TO VISIBILITY.

  * THESE STATIONS ARE PART OF THE UNIVERSITY OF SOUTH ALABAMA
    MESONET AND ARE NOT UNDER NWS OR FAA QUALITY CONTROL.

ALZ061>064-092200-
COASTAL ALABAMA

CITY           SKY/WX    TMP DP  RH WIND       PRES   REMARKS
MOBILE REG APT SUNNY     49  16  26 N13       30.45S
BROOKLEY FIELD SUNNY     51  16  24 N16       30.46S
USA CAMPUS*      N/A     46  16  29 CALM      30.45S
DOG RIVER*       N/A     50  19  29 VRB7      31.34


CITY           SKY/WX    TMP DP  RH WIND       PRES   REMARKS
GULF SHORES    SUNNY     50  17  27 N8G16     30.43S

$$

ALZ051>060-092200-
INTERIOR SOUTHWEST AND SOUTH CENTRAL ALABAMA

CITY           SKY/WX    TMP DP  RH WIND       PRES   REMARKS
GREENVILLE     SUNNY     49  13  23 N14       30.43R
EVERGREEN      SUNNY     49  16  26 N9        30.45R
ATMORE*          N/A     48  18  29 VRB16     30.46R
ANDALUSIA/OPP  SUNNY     53  16  23 N9        30.42S
ANDALUSIA*       N/A     48  18  29 N10       30.41S
FLORALA APT    SUNNY     50  16  25 N9        30.42S
FLORALA*         N/A     48  16  27 W9        31.25S

$$

FLZ001>006-092200-
WESTERN FLORIDA PANHANDLE

CITY           SKY/WX    TMP DP  RH WIND       PRES   REMARKS
PENSACOLA      SUNNY     53  18  25 N12       30.42S
NAS PENSACOLA  SUNNY     52  16  24 N13       30.42S
MILTON         SUNNY     50  17  27 N13       30.42F
WHTNG S FIELD  MOSUNNY   54  18  24 N16       30.42F


CITY           SKY/WX    TMP DP  RH WIND       PRES   REMARKS
JAY*             N/A     48  16  27 NW9       30.43S
DUKE FIELD     SUNNY     51  14  22 N12       30.39S
CRESTVIEW      SUNNY     52  16  24 N12G17    30.42F
VALPARAISO     MOSUNNY   53  14  21 N13       30.40S
DESTIN         SUNNY     55  18  23 N8        30.40S

$$

MSZ076-079-092200-
INTERIOR SOUTHEAST MISSISSIPPI

CITY           SKY/WX    TMP DP  RH WIND       PRES   REMARKS
LEAKESVILLE*   NOT AVBL
AGRICOLA*      NOT AVBL

$$

MARINE OBSERVATIONS

STATION/POSITION TIME  TEMP    WIND        PRES    WAVE
                       AIR SEA DIR/SP/G            HT/PER
                 (UTC) (F)     (DEG/KT/KT) (MB)    (FT/S)
PASCAGOULA       2048   50     360/ 11/ 14 1030.8F
PETIT BOIS ISLND 2048   49     360/ 10/ 13 1031.6S
GRAND BAY        1930   48      20/ 12     1032.0S
KATRINA CUT      2030   46      40/ 12     1030.8R
CEDAR POINT      2030   47      40/ 14     1030.5S
E DAUPHIN ISLAND 2000   46     360/ 18/ 21 1030.7S
MIDDLE BAY LIGHT 2030          360/ 17     1030.8R
USCG MOBILE BAY  2048   48 59   20/  8/ 14 1031.8R
STATE DOCKS      2042   49 62              1031.1R
MEAHER PARK      2030   49     350/  7     1030.8F
WEEKS BAY        1945   50                   N/A
12 S ORANGE BCH  2050   50 69   10/ 12/ 16 1030.6R   2/ 5
PENSACOLA BAY    2042   51 61   10/  7/ 13 1030.0F
64 S DAUPHIN ISL 2050   53 74   20/ 17/ 23 1030.0F   6/ 7
67 S FORT MORGAN 2030   54      30/ 17     1029.1S

$$

SELECTED LOCATIONS ACROSS THE REGION

CITY           SKY/WX    TMP DP  RH WIND       PRES   REMARKS
NEW ORLEANS    MOSUNNY   50  24  36 N7        30.47S
GULFPORT       SUNNY     52  18  26 N12       30.45S
PASCAGOULA AP  SUNNY     51  15  23 N14       30.45S
PASCAGOULA*    NOT AVBL
HATTIESBURG    SUNNY     50  13  22 N12G20    30.48F
LAUREL         SUNNY     48  16  27 N17       30.49F
MERIDIAN       SUNNY     47  15  27 N12       30.50F
JACKSON        SUNNY     44  18  35 NE12      30.52F
MONTGOMERY     SUNNY     49  14  24 N9        30.46R
TROY           SUNNY     48  16  27 N13G22    30.43R
ASHFORD*         N/A     48  18  29 N10       30.41S
DOTHAN         SUNNY     50  19  29 NW9       30.43R
PANAMA CITY    SUNNY     54  17  23 N8        30.38S

$$




USA.gov is the U.S. government's official web portal to all federal, state and local government web resources and services.